This is the latest recevied weather packets stored in our database for station/object KG5WBN. If no packets are shown the sender has not sent any weather packets the latest 10 day(s).
| Time | Temp. | Humidity | Pressure | Rain* | Wind** | Luminosity | Snow |
|---|---|---|---|---|---|---|---|
| 1777495212 | 31.67° C | 31% | 1010.5 hPa | 0 mm | - | 373 W/m² | - |
| 1777494910 | 31.11° C | 32% | 1010.2 hPa | 0 mm | - | 360 W/m² | - |
| 1777494607 | 31.11° C | 32% | 1010.5 hPa | 0 mm | - | 381 W/m² | - |
| 1777494304 | 31.11° C | 32% | 1010.8 hPa | 0 mm | - | 378 W/m² | - |
| 1777494000 | 31.67° C | 31% | 1010.8 hPa | 0 mm | - | 359 W/m² | - |
| 1777493699 | 32.22° C | 30% | 1010.8 hPa | 0 mm | - | 385 W/m² | - |
| 1777493396 | 31.67° C | 31% | 1011.2 hPa | 0 mm | - | 386 W/m² | - |
| 1777493092 | 32.22° C | 30% | 1011.5 hPa | 0 mm | - | 394 W/m² | - |
| 1777492789 | 32.22° C | 32% | 1011.5 hPa | 0 mm | - | 387 W/m² | - |
| 1777492484 | 32.22° C | 36% | 1011.9 hPa | 0 mm | - | 394 W/m² | - |
| 1777492181 | 31.67° C | 38% | 1011.5 hPa | 0 mm | - | 393 W/m² | - |
| 1777491878 | 31.67° C | 38% | 1011.5 hPa | 0 mm | - | 413 W/m² | - |
| 1777491574 | 32.22° C | 36% | 1011.9 hPa | 0 mm | - | 397 W/m² | - |
| 1777491272 | 31.67° C | 38% | 1011.9 hPa | 0 mm | - | 395 W/m² | - |
| 1777490969 | 31.11° C | 40% | 1012.2 hPa | 0 mm | - | 392 W/m² | - |
| 1777490664 | 32.22° C | 36% | 1011.9 hPa | 0 mm | - | 395 W/m² | - |
| 1777490361 | 32.22° C | 38% | 1011.9 hPa | 0 mm | - | 410 W/m² | - |
| 1777490058 | 31.11° C | 39% | 1012.2 hPa | 0 mm | - | 419 W/m² | - |
| 1777489756 | 31.67° C | 38% | 1012.2 hPa | 0 mm | - | 399 W/m² | - |
| 1777489453 | 31.67° C | 41% | 1012.2 hPa | 0 mm | - | 393 W/m² | - |
| 1777489149 | 31.67° C | 41% | 1012.5 hPa | 0 mm | - | 401 W/m² | - |
| 1777488847 | 32.22° C | 40% | 1012.9 hPa | 0 mm | - | 401 W/m² | - |
| 1777488544 | 31.67° C | 39% | 1012.9 hPa | 0 mm | - | 415 W/m² | - |
| 1777488241 | 31.67° C | 40% | 1012.9 hPa | 0 mm | - | 447 W/m² | - |
| 1777487940 | 31.67° C | 41% | 1013.2 hPa | 0 mm | - | 414 W/m² | - |
* Rain latest hour (hover to see other rain measurements)
** Current wind speed in m/s (hover to see current wind gust speed)